Regional Weather Roundup
Issued by NWS Newport/Morehead, NC

Current Version | Previous Version | Graphics & Text | Print | Product List | Glossary On
Versions: 1 2 3 4 5 6 7 8 9 10 11 12 13 14 15 16 17 18 19 20 21 22 23 24 25 26 27 28 29 30 31 32 33 34 35 36 37 38 39 40 41 42 43 44 45 46 47 48 49 50
000 ASUS42 KMHX 032213 RWRMHX WEATHER ROUNDUP FOR EASTERN NORTH CAROLINA NATIONAL WEATHER SERVICE NEWPORT/MOREHEAD CITY NC 600 PM EDT FRI JUL 03 2015 NOTE: "FAIR" INDICATES FEW OR NO CLOUDS BELOW 12,000 FEET WITH NO SIGNIFICANT WEATHER AND/OR OBSTRUCTIONS TO VISIBILITY NCZ015>017-031-032-045>047-102-103-032300- NORTH COAST CITY SKY/WX TMP DP RH WIND PRES REMARKS EDENTON LGT RAIN 75 72 90 NE8 29.91S ELIZABETH CITY PTSUNNY 79 70 74 E15 29.93R KITTY HAWK RAIN 76 71 84 SE7 29.93S MANTEO RAIN 76 72 86 E8 29.94S $$ NCZ045>047-081-094-103-104-032300- CENTRAL COAST CITY SKY/WX TMP DP RH WIND PRES REMARKS FRISCO MOSUNNY 79 73 82 SW13 29.94F SWANQUARTER N/A 81 N/A N/A SW9 29.88S $$ NCZ095-097-098-100-101-032300- SOUTHERN COAST CITY SKY/WX TMP DP RH WIND PRES REMARKS BEAUFORT PTSUNNY 81 75 82 SW18G25 29.94R CEDAR ISLAND N/A 82 N/A N/A S14G20 29.97S JACKSONVILLE NOT AVBL PINEY ISLAND MOCLDY N/A N/A N/A S17G24 29.93R WILMINGTON PTSUNNY 81 74 79 SW9 29.94R $$ NCZ011>013-027>030-043-044-078>080-089-090>093-098-032300- COASTAL PLAIN CITY SKY/WX TMP DP RH WIND PRES REMARKS AHOSKIE CLOUDY N/A N/A N/A E5 29.90F CLINTON PTSUNNY 80 75 83 CALM 29.92S ELIZABETHTOWN MOSUNNY 86 72 61 S7 29.91S GOLDSBORO LGT RAIN 78 75 89 W3 29.89S GREENVILLE PTSUNNY 82 72 69 SW8 29.92S HAVELOCK PTSUNNY 81 72 74 SW15G22 29.93S KENANSVILLE MOSUNNY 81 70 70 SW3 29.93R KINSTON MOSUNNY 82 72 69 SW6 29.91S NEW BERN PTSUNNY 84 73 69 SW12 29.92R RICHLANDS PTSUNNY 81 66 61 S12 29.93R ROCKY MOUNT CLOUDY 80 72 76 S6 29.90S WASHINGTON HVY RAIN 76 73 91 SE10G24 29.91R VSB 1 WHITEVILLE LGT RAIN 73 70 90 S3G25 29.94R VSB 3/4 $$ AMZ130-135-150-152-154-156-158-170-250-252-270-ANZ085-086-088-633-658-670-032300- MARINE OBSERVATIONS STATION/POSITION TIME TEMP WIND PRES WAVE SWELL AIR SEA DIR/SP/G HT/PER HT/PER (UTC) (F) (DEG/KT/KT) (MB) (FT/S) (FT/S) CHESAPEAKE LIGHT 2200 75 100/ 15/ 18 1014.4 64 E VA BEACH 2150 76 78 100/ 10/ 12 1013.9 3/ 7 3/ 7 DUCK 2100 78 77 100/ 13/ 15 1013.0 2 E DUCK 2111 76 N/A 2/15 2/15 OREGON INLET 2100 77 76 80/ 7/ 11 1013.8 13E OREGON INLT 2200 72 N/A 4/ 8 HATTERAS CG 2100 80 78 190/ 6/ 9 1013.5 DIAMOND BUOY 2150 81 81 210/ 19/ 21 1013.6 5/ 7 2/15 CAPE LOOKOUT 2200 80 210/ 17/ 22 1013.6 BEAUFORT LAB 2100 81 81 210/ 13/ 19 1012.7 30 SE NEW RVR IN 2108 80 80 230/ 17/ 25 1014.8 27 SE WRIGHTSVLE 2100 80 230/ 16/ 19 N/A 5 SE WRIGHTSVLE 2108 80 80 210/ 17/ 21 1013.6 225 S CAPE HAT 2150 81 81 230/ 12/ 14 1018.6 6/ 7 5/ 7 41 SE CHARLESTON 2150 80 82 240/ 16/ 19 1015.2 5/ 5 2/ 8 $$

USA.gov is the U.S. government's official web portal to all federal, state and local government web resources and services.